Wind_Speed
14 15 15 16 16 16 17 18 19 19 20 21 22 24 25 27 29 32 32 33 34 35 38 40 42 44 45 47 49 50 51 51 52 51 50 50 50 49 49 49 49 48 47
17 17 17 18 19 20 21 22 22 23 24 25 27 29 30 32 33 36 37 38 39 41 42 44 46 48 49 51 53 54 55 56 56 56 55 54 53 53 52 52 51 51 51
20 21 21 21 22 23 24 26 28 28 30 31 33 35 37 38 39 41 43 45 45 46 47 48 50 52 54 55 57 58 60 60 60 60 59 58 57 56 55 54 54 53 52
24 24 24 25 27 27 28 30 32 33 36 37 39 41 43 44 45 47 48 50 52 53 53 54 55 56 58 59 60 62 63 64 64 64 63 61 60 59 58 57 56 55 54
29 28 27 28 30 31 32 34 36 38 40 42 44 46 48 50 51 53 54 56 57 58 59 60 60 61 62 63 63 64 64 65 65 66 65 64 62 61 60 59 58 58 57
32 31 30 31 33 34 36 37 39 42 44 46 48 50 52 54 56 57 59 60 62 63 64 64 65 65 65 65 65 65 64 64 64 65 65 65 64 63 61 61 60 59 59
34 34 33 34 36 39 40 41 43 45 48 50 51 53 54 56 58 60 62 63 65 66 66 67 67 67 66 65 65 64 62 60 60 60 61 62 62 61 60 60 59 59 59
35 35 37 38 39 41 43 44 46 48 50 53 55 56 56 58 60 62 63 65 66 67 67 67 67 66 64 63 61 60 58 55 54 53 54 55 56 56 56 56 56 57 58
38 38 39 41 42 44 45 47 48 50 52 54 56 57 58 58 59 61 64 66 67 67 67 67 66 66 64 62 58 56 53 51 50 48 47 48 49 50 51 51 51 51 52
41 40 41 42 45 46 46 47 48 51 52 54 56 58 59 60 60 61 63 65 65 65 66 66 65 63 61 59 57 55 52 50 48 46 45 45 46 47 48 48 48 48 48
43 42 42 44 45 46 47 49 51 53 55 56 58 60 61 62 63 63 63 64 65 65 66 66 64 61 59 57 56 55 53 51 49 47 47 47 47 47 48 48 48 48 48
45 44 45 46 48 49 50 51 53 55 57 59 60 61 62 63 64 64 64 65 66 67 67 66 64 61 59 57 56 56 55 54 52 51 50 51 51 51 51 51 51 51 51
46 46 46 49 51 53 53 54 56 58 60 60 61 61 62 62 64 65 66 67 67 67 67 65 63 61 60 59 58 58 57 57 56 56 56 55 55 56 56 55 55 55 54
48 48 50 52 54 56 56 57 58 59 60 60 60 60 61 63 65 66 67 68 67 66 65 64 63 63 62 61 61 61 60 60 60 60 61 60 60 60 60 60 59 59 58
50 51 53 56 57 58 58 58 59 60 61 60 60 61 63 65 67 68 68 68 68 66 64 64 63 63 63 63 63 63 63 63 62 63 63 63 63 63 63 64 63 63 62
52 55 57 58 58 58 58 59 60 61 61 61 62 64 65 67 68 69 69 69 69 68 66 65 64 63 61 61 61 62 61 61 61 61 61 61 61 62 63 64 65 65 65
55 57 58 59 59 58 59 60 61 62 62 62 64 65 67 68 68 69 69 69 68 68 67 64 62 59 56 54 52 52 52 52 52 53 54 54 54 55 57 60 62 64 64
57 58 60 60 60 61 62 61 61 62 62 63 64 66 67 68 68 68 68 67 66 64 62 57 52 49 47 45 44 43 42 42 43 43 44 45 45 47 49 53 56 59 61
58 61 62 62 62 62 61 60 60 61 62 64 65 67 67 68 67 66 65 62 58 55 52 48 44 42 40 39 38 36 36 36 36 37 38 38 39 41 43 46 49 52 55
60 63 64 63 62 61 59 59 60 61 62 64 65 66 66 65 63 60 56 53 50 47 45 42 38 36 33 33 32 31 31 31 32 32 32 33 34 36 38 40 42 45 48
64 65 64 64 62 58 57 58 59 61 62 63 63 63 61 58 55 52 49 46 44 41 38 35 32 29 27 27 28 27 26 26 25 26 27 28 29 30 32 34 36 38 40
67 65 63 59 56 55 55 57 59 60 61 61 60 57 54 51 48 46 44 41 38 35 31 27 24 22 22 22 22 21 20 20 20 22 22 23 24 24 25 27 28 30 32
64 61 57 54 53 53 55 56 57 58 57 56 53 50 47 44 42 39 36 33 30 25 20 17 16 17 17 16 15 14 14 13 14 16 16 16 16 17 18 19 21 23 26
59 55 52 51 51 52 53 54 54 53 51 48 46 43 40 37 34 31 28 24 20 16 13 12 12 12 11 10 9 9 8 8 9 10 9 10 11 12 14 16 18 20 23
52 49 49 49 50 51 51 50 49 46 43 41 39 37 34 30 28 24 19 15 12 9 8 8 7 6 6 6 6 6 6 6 6 6 7 7 8 10 11 13 16 19 22
46 47 48 48 48 47 46 44 41 37 35 34 33 31 27 24 20 16 12 9 7 6 6 5 5 5 5 6 7 7 7 7 7 7 7 7 8 9 10 12 14 18 21
Wind_Direction
305 305 305 302 300 297 294 291 290 288 286 286 287 288 289 290 290 291 291 291 291 290 290 289 288 287 286 284 283 281 279 277 275 273 270 268 267 265 264 263 262 262 261
298 297 298 297 296 294 292 290 288 287 286 286 287 288 289 290 291 292 292 291 290 290 289 288 288 287 286 284 283 282 280 278 276 273 271 268 266 264 263 262 261 260 260
291 291 291 291 290 288 288 288 287 288 287 286 287 288 289 290 292 291 291 290 289 288 288 287 287 286 285 284 283 282 280 278 276 274 271 269 266 264 262 260 259 259 258
287 287 289 289 288 288 288 287 287 288 288 288 288 289 289 290 290 290 290 289 288 288 288 287 285 285 285 284 283 281 280 278 276 274 271 269 266 263 261 259 258 258 257
285 286 288 290 290 291 291 290 290 290 289 289 290 290 290 289 289 289 289 288 288 288 287 286 285 285 284 284 282 281 280 278 275 273 271 268 265 263 260 259 257 257 256
283 285 286 289 291 293 293 293 292 291 291 291 290 290 290 289 288 288 288 288 288 288 287 287 286 285 284 284 283 283 281 278 275 272 270 267 264 262 260 258 257 257 256
284 284 285 288 291 292 292 293 292 291 290 289 289 289 288 287 286 286 286 286 286 286 286 286 286 286 285 285 284 283 282 279 275 272 269 266 263 260 258 257 256 255 255
290 289 288 288 290 291 291 292 292 292 291 290 289 289 288 288 288 287 286 286 286 286 286 287 287 287 287 286 285 284 281 278 275 272 268 264 261 259 258 256 255 254 253
293 291 290 291 291 292 293 293 293 292 291 290 289 289 289 289 288 288 288 288 288 289 289 289 289 289 288 286 285 282 279 276 273 271 267 264 261 258 257 255 254 253 252
293 292 292 292 292 294 296 295 296 295 294 293 292 291 290 289 288 288 289 290 290 290 290 290 290 289 288 286 283 279 276 273 271 269 266 263 260 259 257 255 253 252 251
295 294 294 294 295 296 296 296 297 296 296 295 294 293 292 291 291 290 290 291 291 291 291 290 290 288 286 283 280 277 274 270 268 267 265 263 260 258 257 255 253 252 251
293 293 295 294 295 297 297 297 297 296 296 295 294 294 293 293 293 293 293 292 292 292 291 291 290 289 286 283 279 276 273 270 267 265 264 262 261 259 257 256 254 253 252
291 293 294 295 297 298 297 297 297 297 297 296 296 295 295 295 295 295 295 294 293 292 292 291 290 288 286 283 281 277 274 271 268 266 264 263 261 260 258 257 255 254 253
292 295 297 298 298 298 297 297 298 297 297 298 297 297 297 296 296 296 295 294 293 292 292 291 290 288 286 284 282 279 276 273 270 268 265 264 262 260 259 257 256 255 254
294 297 297 298 298 297 297 298 299 299 300 299 299 299 298 298 297 296 295 295 294 292 291 289 288 287 286 284 282 279 277 275 272 269 267 265 263 261 259 258 256 255 254
296 297 298 298 297 297 298 299 300 301 300 300 299 299 299 299 298 297 296 295 294 293 291 289 288 286 285 283 281 279 277 275 273 270 268 266 263 261 259 257 256 254 253
296 297 297 297 297 298 299 299 300 300 300 300 300 300 299 299 298 297 296 295 294 293 291 290 288 287 285 283 281 279 277 275 273 271 269 266 263 260 257 255 253 252 250
296 295 296 297 297 298 299 300 300 300 300 300 300 300 300 300 299 298 297 296 295 294 293 291 289 288 286 284 282 279 278 276 274 271 268 265 262 258 255 252 250 248 247
295 296 297 297 298 299 300 300 300 301 301 301 301 302 302 301 300 300 299 297 296 295 294 292 290 288 286 284 282 280 278 276 273 271 267 264 260 257 254 251 248 245 243
295 296 296 297 299 300 301 300 301 302 302 303 303 303 303 303 302 301 300 299 298 297 295 293 291 289 286 283 283 280 278 277 274 270 266 262 259 255 252 250 247 244 241
295 295 295 297 299 301 301 302 302 303 303 304 305 305 305 304 304 303 303 302 300 298 296 294 292 289 286 285 285 283 280 276 272 269 264 261 258 254 251 247 244 241 238
293 294 297 298 301 303 302 303 303 304 305 306 306 306 306 306 306 305 305 304 302 300 297 293 290 288 289 291 289 285 280 274 269 267 264 260 256 251 247 243 239 236 232
293 295 299 301 302 303 303 303 304 306 307 308 308 308 308 309 308 308 308 307 306 304 300 295 292 293 296 296 293 288 283 277 268 265 264 257 251 244 238 234 230 226 222
295 298 302 302 303 303 304 305 307 308 309 309 310 311 313 313 313 313 312 311 311 309 306 303 302 302 302 303 303 299 293 285 276 270 264 254 247 241 236 230 225 220 218
300 302 303 303 304 304 305 307 308 310 310 312 313 315 317 318 319 320 320 320 321 323 324 324 324 324 327 330 332 330 322 312 297 286 278 264 255 248 241 234 227 223 219
303 304 304 304 305 306 307 308 309 311 313 314 315 317 320 322 325 328 334 342 350 355 358 4 10 16 17 12 1 350 339 328 316 304 291 279 266 256 249 243 236 229 223
Height
5859 5858 5857 5855 5855 5854 5854 5853 5852 5851 5850 5848 5847 5845 5844 5842 5840 5838 5837 5835 5834 5833 5831 5829 5827 5826 5824 5823 5822 5821 5820 5819 5819 5819 5819 5820 5820 5821 5822 5822 5823 5825 5827
5856 5855 5854 5852 5851 5850 5849 5848 5847 5846 5845 5843 5842 5839 5838 5836 5834 5831 5828 5827 5825 5823 5821 5819 5817 5815 5813 5811 5810 5808 5807 5807 5806 5806 5807 5807 5808 5809 5810 5811 5813 5814 5816
5852 5851 5850 5848 5846 5845 5844 5842 5841 5840 5838 5837 5835 5833 5830 5828 5826 5823 5820 5817 5814 5813 5811 5808 5806 5803 5801 5798 5796 5795 5793 5793 5792 5792 5793 5794 5795 5796 5797 5799 5800 5802 5804
5849 5846 5845 5843 5841 5839 5838 5836 5835 5833 5830 5828 5826 5824 5821 5818 5815 5812 5809 5806 5803 5800 5798 5796 5793 5790 5788 5785 5783 5780 5778 5777 5777 5777 5777 5778 5779 5781 5783 5785 5787 5789 5791
5844 5842 5840 5837 5834 5833 5831 5829 5827 5825 5822 5819 5816 5813 5811 5808 5804 5800 5797 5793 5790 5787 5784 5781 5778 5776 5773 5770 5767 5765 5762 5761 5760 5759 5760 5761 5763 5765 5767 5770 5772 5775 5778
5837 5835 5834 5831 5827 5825 5823 5821 5818 5815 5812 5808 5805 5802 5799 5795 5792 5788 5784 5780 5776 5772 5768 5765 5762 5759 5756 5754 5751 5748 5745 5743 5741 5741 5741 5743 5745 5747 5751 5754 5757 5760 5763
5830 5827 5826 5824 5821 5817 5814 5812 5809 5805 5802 5797 5794 5791 5788 5783 5779 5775 5770 5766 5762 5758 5753 5749 5745 5742 5739 5736 5734 5731 5728 5726 5724 5723 5723 5724 5726 5730 5733 5737 5741 5744 5748
5822 5820 5818 5815 5812 5808 5805 5802 5798 5794 5790 5785 5781 5777 5775 5772 5765 5760 5755 5751 5747 5742 5738 5733 5729 5725 5722 5720 5717 5714 5712 5710 5708 5706 5706 5707 5710 5713 5717 5721 5725 5728 5732
5813 5811 5809 5805 5802 5798 5795 5791 5787 5783 5778 5773 5768 5763 5760 5756 5752 5747 5739 5734 5729 5725 5721 5716 5711 5708 5705 5702 5701 5699 5697 5696 5694 5693 5692 5693 5696 5699 5702 5706 5710 5714 5717
5804 5802 5799 5795 5791 5787 5783 5778 5774 5769 5765 5760 5754 5748 5744 5740 5736 5733 5727 5719 5714 5709 5705 5700 5695 5691 5688 5685 5684 5682 5681 5681 5680 5680 5680 5681 5683 5685 5689 5692 5696 5700 5704
5794 5791 5788 5784 5779 5775 5771 5766 5761 5756 5751 5746 5740 5734 5728 5723 5719 5715 5712 5706 5700 5694 5688 5683 5679 5675 5671 5669 5667 5666 5665 5665 5666 5666 5667 5668 5670 5672 5675 5679 5683 5687 5691
5783 5781 5777 5773 5768 5763 5759 5754 5749 5743 5737 5731 5725 5719 5713 5708 5702 5697 5694 5689 5684 5678 5672 5666 5662 5657 5654 5652 5650 5649 5649 5649 5650 5651 5652 5653 5656 5658 5662 5665 5669 5673 5677
5772 5770 5765 5761 5756 5751 5746 5740 5735 5729 5723 5717 5711 5704 5698 5692 5686 5680 5675 5670 5666 5661 5655 5649 5644 5640 5636 5634 5632 5631 5631 5632 5633 5634 5635 5637 5640 5642 5646 5649 5653 5658 5662
5760 5757 5753 5748 5743 5737 5732 5726 5720 5714 5708 5702 5696 5690 5684 5677 5670 5664 5657 5652 5647 5643 5638 5633 5627 5621 5618 5616 5614 5612 5612 5612 5614 5615 5616 5619 5621 5625 5628 5632 5636 5641 5646
5749 5745 5740 5735 5730 5724 5718 5712 5706 5700 5693 5687 5681 5675 5668 5661 5654 5646 5639 5633 5627 5624 5621 5616 5610 5604 5599 5596 5594 5592 5592 5592 5593 5593 5595 5598 5601 5604 5608 5612 5617 5622 5628
5737 5732 5727 5721 5716 5710 5704 5698 5692 5685 5679 5672 5666 5659 5652 5644 5636 5628 5621 5614 5607 5602 5600 5596 5591 5585 5580 5576 5574 5572 5571 5571 5571 5572 5573 5576 5579 5583 5587 5591 5596 5602 5608
5724 5719 5713 5708 5702 5696 5690 5684 5678 5671 5664 5657 5650 5643 5635 5627 5619 5611 5603 5596 5588 5581 5578 5576 5570 5565 5561 5557 5555 5552 5551 5551 5551 5552 5553 5555 5558 5562 5565 5570 5575 5581 5587
5711 5705 5700 5694 5688 5682 5676 5670 5663 5656 5649 5642 5634 5626 5618 5610 5602 5593 5585 5577 5570 5562 5557 5555 5552 5548 5544 5541 5539 5537 5536 5535 5535 5535 5536 5537 5540 5543 5546 5550 5555 5561 5567
5697 5691 5685 5680 5674 5668 5662 5655 5648 5641 5634 5626 5618 5610 5601 5592 5584 5575 5567 5559 5552 5546 5541 5538 5536 5533 5530 5527 5526 5524 5523 5522 5522 5522 5522 5523 5525 5527 5530 5533 5537 5543 5549
5683 5677 5671 5665 5659 5654 5648 5640 5634 5627 5619 5611 5602 5593 5584 5575 5567 5559 5551 5544 5538 5532 5528 5524 5522 5520 5518 5516 5514 5514 5513 5511 5511 5510 5510 5511 5512 5514 5516 5519 5524 5529 5534
5669 5663 5657 5651 5645 5640 5633 5626 5620 5612 5605 5596 5587 5578 5569 5560 5552 5544 5538 5532 5526 5521 5517 5514 5512 5510 5509 5507 5506 5504 5504 5502 5502 5500 5501 5501 5502 5504 5505 5508 5512 5516 5521
5655 5649 5643 5637 5632 5626 5619 5613 5606 5598 5590 5582 5573 5564 5555 5547 5539 5532 5526 5520 5515 5510 5507 5505 5504 5502 5502 5500 5499 5497 5496 5495 5495 5494 5493 5494 5494 5495 5497 5499 5503 5507 5512
5642 5636 5630 5624 5619 5613 5606 5599 5592 5584 5576 5568 5560 5552 5544 5536 5529 5523 5517 5511 5507 5503 5500 5499 5499 5498 5497 5495 5493 5492 5491 5490 5489 5488 5488 5488 5489 5490 5491 5494 5497 5500 5505
5629 5623 5618 5612 5606 5601 5594 5587 5579 5571 5563 5555 5548 5541 5534 5527 5520 5515 5510 5505 5502 5499 5497 5496 5495 5494 5493 5492 5490 5489 5488 5487 5486 5485 5485 5485 5485 5486 5488 5490 5493 5496 5500
5617 5611 5606 5600 5594 5588 5582 5574 5567 5560 5553 5546 5539 5533 5526 5521 5515 5510 5505 5502 5500 5498 5496 5495 5494 5493 5492 5491 5489 5488 5487 5486 5485 5484 5483 5483 5483 5484 5485 5487 5489 5492 5496
5605 5600 5594 5588 5582 5576 5569 5563 5557 5551 5545 5539 5533 5527 5521 5516 5512 5508 5504 5502 5500 5498 5497 5496 5495 5494 5492 5491 5490 5488 5487 5485 5483 5482 5481 5481 5481 5481 5482 5483 5485 5488 5491